STARLINK-36991, 68011

Orbit data source: Space-Track

STARLINK-36991, 68011 is a payload satellite owned by SpaceX/Seattle (US) in LEO that was launched on Fri, 27 Feb 2026 UTC via an FALCON 9 launch vehicle from the Air Force Eastern Test Range (AFETR). Payload-class satellites include a variety of spacecraft equipped with specific instruments for various scientific and technological missions. These include communications satellites like Starlink; space stations such as the ISS; scientific satellites like the Hubble; Earth observation satellites from companies like Planet Labs, Umbra, and HawkEye 360; GPS; miniature CubeSats for education and research; and military/defense satellites.

Loading next visibility...
Identifier
68011, 2026-039AB
Orbit
LEO
Country
Flag of USUS
Related business
Manufacturer
SpaceX/Seattle
Mission
Operational Commercial Communications
Bus & Motor
STARLINK V2MO, Unknown motor
Mass
575 kg wet, ~530 kg dry
Launch date (UTC)
2026-02-27 (2 months ago)
Launch vehicle
FALCON 9
Launch site
Air Force Eastern Test Range (AFETR)
Object type
Payload
Rocket body
Debris
Shape & HBR
Box + 2 Pan, 17.7 m
Radar Cross Section
36.964 m²

Expand to show TLE details & history
Last TLE update: 8 hours ago

TLE from 8 hours ago
0 STARLINK-36991
1 68011U 26039AB  26119.28308548  .00017936  00000-0  65946-3 0  9992
2 68011  42.9988 122.9858 0000616 215.4728 144.6083 15.27591905  9442
Epoch: 2026-04-29T06:47Z
TLE epoch observation values (Epoch: 2026-04-29T06:47:38.585Z)
Latitude
Longitude
163.82876°
Altitude
483.133 km
Speed
7.625 km/s
True Right ascension
08h 11m 56s
True Declination
0° 00' 00"
Sunlit
Object was in daylight at epoch
Visualization orbit readout
Latitude
Unknown
Longitude
Unknown
Altitude
Unknown
Speed
Unknown
Apparent Right ascension
Unknown
Apparent Declination
Unknown
Sunlit
N/A
Visualization observer readout
Local Sidereal Time
21:49:16
Azimuth
Unknown
Elevation
Unknown
Doppler factor
Unknown
Orbital elements
Apogee altitude
485.382 km
Perigee altitude
484.536 km
Semi-major axis
6,863.096 km
Eccentricity
0.00006
Inclination
42.9988°
RAAN
122.9858°
Arg. of periapsis
215.4728°
True anomaly
144.61239°
Mean anomaly
144.6083°
Eccentric anomaly
144.61034°
Mean motion
3.81736 °/min
Orbital period
94.31 mins
BSTAR
0.00065946
Loading maneuver chart data...
Computing Atmospheric mass density...
Loading historical data...
Loading historical data...
Loading historical data...
Loading historical data...
Loading historical data...
Loading historical data...
Loading historical data...

Documentation

Showing up to 5 results
|